Time,TemperatureF,DewpointF,PressureIn,WindDirection,WindDirectionDegrees,WindSpeedMPH,WindSpeedGustMPH,Humidity,HourlyPrecipIn,Conditions,Clouds,dailyrainin,SoftwareType,DateUTC
2013-02-10 00:00:00,38.2,35.8,29.92,NE,44,2.0,14.0,91,0.05,,,0.10,Wunderground v.1.15,2013-02-10 06:00:00,
2013-02-10 00:10:00,38.1,36.0,29.90,NNW,339,3.0,3.0,92,0.39,,,0.09,Wunderground v.1.15,2013-02-10 06:10:00,
2013-02-10 00:20:00,38.1,36.0,29.89,ESE,113,2.0,14.0,92,0.17,,,0.11,Wunderground v.1.15,2013-02-10 06:20:00,
2013-02-10 00:29:00,38.3,36.5,29.90,ESE,104,2.0,2.0,93,0.04,,,0.11,Wunderground v.1.15,2013-02-10 06:29:00,
2013-02-10 00:40:00,38.7,36.9,29.89,East,98,2.0,14.0,93,0.00,,,0.11,Wunderground v.1.15,2013-02-10 06:40:00,
2013-02-10 00:50:00,39.1,37.0,29.88,NNE,20,3.0,14.0,92,0.00,,,0.11,Wunderground v.1.15,2013-02-10 06:50:00,
2013-02-10 01:00:00,39.5,37.4,29.87,ESE,111,4.0,4.0,92,0.00,,,0.11,Wunderground v.1.15,2013-02-10 07:00:00,
2013-02-10 01:09:00,39.8,37.7,29.86,NNE,32,4.0,14.0,92,0.00,,,0.11,Wunderground v.1.15,2013-02-10 07:09:00,
2013-02-10 01:20:00,40.2,38.1,29.85,NE,47,4.0,4.0,92,0.00,,,0.11,Wunderground v.1.15,2013-02-10 07:20:00,
2013-02-10 01:30:00,40.5,38.1,29.85,ENE,75,4.0,4.0,91,0.00,,,0.11,Wunderground v.1.15,2013-02-10 07:30:00,
2013-02-10 01:40:00,40.7,38.3,29.84,East,92,4.0,4.0,91,0.00,,,0.11,Wunderground v.1.15,2013-02-10 07:40:00,
2013-02-10 01:49:00,40.8,38.4,29.83,ENE,78,3.0,14.0,91,0.00,,,0.11,Wunderground v.1.15,2013-02-10 07:49:00,
2013-02-10 02:00:00,41.0,38.6,29.83,NE,38,3.0,14.0,91,0.00,,,0.11,Wunderground v.1.15,2013-02-10 08:00:00,
2013-02-10 02:10:00,41.3,38.9,29.83,North,11,3.0,14.0,91,0.00,,,0.11,Wunderground v.1.15,2013-02-10 08:10:00,
2013-02-10 02:20:00,41.5,39.1,29.82,SE,127,3.0,14.0,91,0.00,,,0.11,Wunderground v.1.15,2013-02-10 08:20:00,
2013-02-10 02:30:00,41.7,39.3,29.82,East,99,3.0,3.0,91,0.00,,,0.11,Wunderground v.1.15,2013-02-10 08:30:00,
2013-02-10 02:40:00,41.8,39.4,29.81,East,89,2.0,14.0,91,0.00,,,0.11,Wunderground v.1.15,2013-02-10 08:40:00,
2013-02-10 02:50:00,41.9,39.5,29.80,NNE,15,3.0,3.0,91,0.00,,,0.11,Wunderground v.1.15,2013-02-10 08:50:00,
2013-02-10 02:59:00,42.2,39.8,29.80,North,1,4.0,4.0,91,0.00,,,0.11,Wunderground v.1.15,2013-02-10 08:59:00,
2013-02-10 03:10:00,42.2,39.8,29.79,ENE,76,3.0,3.0,91,0.00,,,0.11,Wunderground v.1.15,2013-02-10 09:10:00,
2013-02-10 03:20:00,42.3,39.9,29.79,NNE,32,2.0,14.0,91,0.00,,,0.11,Wunderground v.1.15,2013-02-10 09:20:00,
2013-02-10 03:30:00,42.5,40.1,29.78,SSE,148,3.0,3.0,91,0.00,,,0.11,Wunderground v.1.15,2013-02-10 09:30:00,
2013-02-10 03:39:00,42.5,40.1,29.76,ESE,107,2.0,14.0,91,0.00,,,0.11,Wunderground v.1.15,2013-02-10 09:39:00,
2013-02-10 03:50:00,42.7,40.3,29.76,NNE,23,3.0,3.0,91,0.00,,,0.11,Wunderground v.1.15,2013-02-10 09:50:00,
2013-02-10 04:00:00,42.9,40.5,29.75,ESE,110,3.0,14.0,91,0.00,,,0.11,Wunderground v.1.15,2013-02-10 10:00:00,
2013-02-10 04:10:00,43.2,40.8,29.75,ESE,117,3.0,3.0,91,0.00,,,0.11,Wunderground v.1.15,2013-02-10 10:10:00,
2013-02-10 04:19:00,43.5,41.0,29.74,ENE,68,4.0,14.0,91,0.00,,,0.11,Wunderground v.1.15,2013-02-10 10:19:00,
2013-02-10 04:30:00,43.6,41.1,29.74,NE,47,3.0,3.0,91,0.00,,,0.11,Wunderground v.1.15,2013-02-10 10:30:00,
2013-02-10 04:40:00,43.7,41.2,29.71,South,176,4.0,14.0,91,0.00,,,0.11,Wunderground v.1.15,2013-02-10 10:40:00,
2013-02-10 04:50:00,43.8,41.6,29.73,East,89,4.0,14.0,92,0.00,,,0.11,Wunderground v.1.15,2013-02-10 10:50:00,
2013-02-10 04:59:00,43.9,41.7,29.72,ESE,122,4.0,14.0,92,0.00,,,0.11,Wunderground v.1.15,2013-02-10 10:59:00,
2013-02-10 05:05:00,44.1,41.9,29.72,East,82,5.0,14.0,92,0.00,,,0.11,Wunderground v.1.15,2013-02-10 11:05:00,
2013-02-10 05:15:00,44.3,42.4,29.72,ESE,116,4.0,14.0,93,0.00,,,0.11,Wunderground v.1.15,2013-02-10 11:15:00,
2013-02-10 05:25:00,44.6,42.7,29.71,East,94,5.0,5.0,93,0.00,,,0.11,Wunderground v.1.15,2013-02-10 11:25:00,
2013-02-10 05:34:00,44.8,42.9,29.69,ESE,117,5.0,14.0,93,0.08,,,0.13,Wunderground v.1.15,2013-02-10 11:34:00,
2013-02-10 05:40:00,45.0,43.4,29.70,SE,128,5.0,14.0,94,0.08,,,0.13,Wunderground v.1.15,2013-02-10 11:40:00,
2013-02-10 05:50:00,45.3,43.7,29.69,North,360,5.0,5.0,94,0.00,,,0.13,Wunderground v.1.15,2013-02-10 11:50:00,
2013-02-10 06:00:00,45.5,43.9,29.67,WSW,238,4.0,4.0,94,0.00,,,0.13,Wunderground v.1.15,2013-02-10 12:00:00,
2013-02-10 06:09:00,45.7,44.1,29.68,East,85,4.0,4.0,94,0.00,,,0.13,Wunderground v.1.15,2013-02-10 12:09:00,
2013-02-10 06:19:00,46.1,44.5,29.68,East,99,2.0,14.0,94,0.00,,,0.13,Wunderground v.1.15,2013-02-10 12:19:00,
2013-02-10 06:25:00,46.3,44.7,29.67,SE,127,3.0,14.0,94,0.00,,,0.13,Wunderground v.1.15,2013-02-10 12:25:00,
2013-02-10 06:35:00,46.8,45.2,29.66,ESE,113,3.0,4.0,94,0.00,,,0.13,Wunderground v.1.15,2013-02-10 12:35:00,
2013-02-10 06:45:00,47.1,45.5,29.65,ESE,105,3.0,4.0,94,0.00,,,0.14,Wunderground v.1.15,2013-02-10 12:45:00,
2013-02-10 06:54:00,47.3,45.7,29.65,North,356,4.0,5.0,94,0.00,,,0.14,Wunderground v.1.15,2013-02-10 12:54:00,
2013-02-10 07:05:00,47.5,45.9,29.65,East,94,4.0,14.0,94,0.00,,,0.14,Wunderground v.1.15,2013-02-10 13:05:00,
2013-02-10 07:15:00,47.7,46.1,29.65,East,101,3.0,14.0,94,0.09,,,0.16,Wunderground v.1.15,2013-02-10 13:15:00,
2013-02-10 07:25:00,48.0,46.4,29.63,ENE,70,4.0,14.0,94,0.10,,,0.17,Wunderground v.1.15,2013-02-10 13:25:00,
2013-02-10 07:34:00,48.0,46.4,29.63,North,9,4.0,14.0,94,0.06,,,0.18,Wunderground v.1.15,2013-02-10 13:34:00,
2013-02-10 07:40:00,48.0,46.4,29.63,SSE,159,5.0,5.0,94,0.04,,,0.18,Wunderground v.1.15,2013-02-10 13:40:00,
2013-02-10 07:50:00,48.2,46.6,29.63,NE,41,4.0,4.0,94,0.00,,,0.18,Wunderground v.1.15,2013-02-10 13:50:00,
2013-02-10 08:00:00,48.6,47.0,29.63,ESE,114,4.0,14.0,94,0.00,,,0.19,Wunderground v.1.15,2013-02-10 14:00:00,
2013-02-10 08:09:00,49.0,47.3,29.63,SE,131,5.0,14.0,94,0.00,,,0.19,Wunderground v.1.15,2013-02-10 14:09:00,
2013-02-10 08:19:00,49.4,47.7,29.63,East,84,5.0,5.0,94,0.00,,,0.19,Wunderground v.1.15,2013-02-10 14:19:00,
2013-02-10 08:25:00,49.5,47.8,29.63,East,86,6.0,6.0,94,0.00,,,0.19,Wunderground v.1.15,2013-02-10 14:25:00,
2013-02-10 08:35:00,50.1,48.2,29.63,ESE,105,6.0,14.0,93,0.00,,,0.19,Wunderground v.1.15,2013-02-10 14:35:00,
2013-02-10 08:45:00,50.6,48.7,29.62,SSE,151,5.0,14.0,93,0.00,,,0.19,Wunderground v.1.15,2013-02-10 14:45:00,
2013-02-10 08:54:00,51.0,48.8,29.61,East,101,5.0,5.0,92,0.00,,,0.19,Wunderground v.1.15,2013-02-10 14:54:00,
2013-02-10 09:05:00,51.2,49.0,29.61,ESE,110,5.0,13.0,92,0.00,,,0.19,Wunderground v.1.15,2013-02-10 15:05:00,
2013-02-10 09:15:00,51.8,49.3,29.61,ESE,108,7.0,7.0,91,0.00,,,0.19,Wunderground v.1.15,2013-02-10 15:15:00,
2013-02-10 09:25:00,52.6,50.0,29.60,ESE,110,5.0,14.0,91,0.00,,,0.19,Wunderground v.1.15,2013-02-10 15:25:00,
2013-02-10 09:34:00,53.5,50.6,29.59,East,101,7.0,14.0,90,0.00,,,0.19,Wunderground v.1.15,2013-02-10 15:34:00,
2013-02-10 09:40:00,53.8,50.9,29.60,ESE,118,6.0,6.0,90,0.00,,,0.19,Wunderground v.1.15,2013-02-10 15:40:00,
2013-02-10 09:50:00,54.3,51.1,29.60,ESE,110,7.0,7.0,89,0.00,,,0.19,Wunderground v.1.15,2013-02-10 15:50:00,
2013-02-10 10:00:00,54.2,51.0,29.61,ESE,103,7.0,14.0,89,0.00,,,0.19,Wunderground v.1.15,2013-02-10 16:00:00,
2013-02-10 10:09:00,54.1,50.9,29.60,SE,128,6.0,14.0,89,0.00,,,0.19,Wunderground v.1.15,2013-02-10 16:09:00,
2013-02-10 10:20:00,54.2,51.0,29.60,ESE,113,5.0,5.0,89,0.00,,,0.19,Wunderground v.1.15,2013-02-10 16:20:00,
2013-02-10 10:30:00,54.2,51.0,29.60,ENE,74,6.0,14.0,89,0.00,,,0.19,Wunderground v.1.15,2013-02-10 16:30:00,
2013-02-10 10:40:00,54.3,51.1,29.60,East,95,7.0,7.0,89,0.00,,,0.19,Wunderground v.1.15,2013-02-10 16:40:00,
2013-02-10 10:50:00,54.6,51.1,29.60,East,96,7.0,14.0,88,0.00,,,0.19,Wunderground v.1.15,2013-02-10 16:50:00,
2013-02-10 11:00:00,54.8,51.3,29.60,SE,127,8.0,14.0,88,0.00,,,0.19,Wunderground v.1.15,2013-02-10 17:00:00,
2013-02-10 11:10:00,55.1,51.6,29.60,ESE,104,6.0,6.0,88,0.00,,,0.19,Wunderground v.1.15,2013-02-10 17:10:00,
2013-02-10 11:20:00,55.3,51.5,29.60,SSE,167,4.0,4.0,87,0.00,,,0.19,Wunderground v.1.15,2013-02-10 17:20:00,
2013-02-10 11:30:00,55.3,51.5,29.60,SE,132,4.0,14.0,87,0.00,,,0.19,Wunderground v.1.15,2013-02-10 17:30:00,
2013-02-10 11:39:00,56.4,52.6,29.60,South,190,5.0,5.0,87,0.00,,,0.19,Wunderground v.1.15,2013-02-10 17:39:00,
2013-02-10 11:45:00,57.0,52.5,29.59,ESE,103,5.0,14.0,85,0.00,,,0.19,Wunderground v.1.15,2013-02-10 17:45:00,
2013-02-10 11:54:00,57.7,52.2,29.59,ESE,122,5.0,14.0,82,0.00,,,0.19,Wunderground v.1.15,2013-02-10 17:54:00,
2013-02-10 12:05:00,58.7,51.9,29.58,East,99,8.0,14.0,78,0.00,,,0.19,Wunderground v.1.15,2013-02-10 18:05:00,
2013-02-10 12:15:00,59.1,51.2,29.58,East,91,8.0,14.0,75,0.00,,,0.19,Wunderground v.1.15,2013-02-10 18:15:00,
2013-02-10 12:25:00,59.8,49.2,29.57,SSE,165,10.0,14.0,68,0.00,,,0.19,Wunderground v.1.15,2013-02-10 18:25:00,
2013-02-10 12:34:00,60.2,45.8,29.57,South,184,8.0,14.0,59,0.00,,,0.19,Wunderground v.1.15,2013-02-10 18:34:00,
2013-02-10 12:45:00,60.5,44.7,29.57,SE,138,9.0,15.0,56,0.00,,,0.19,Wunderground v.1.15,2013-02-10 18:45:00,
2013-02-10 12:50:00,60.8,45.0,29.57,SSE,158,9.0,9.0,56,0.00,,,0.19,Wunderground v.1.15,2013-02-10 18:50:00,
2013-02-10 13:00:00,61.8,45.0,29.57,ESE,120,7.0,14.0,54,0.00,,,0.19,Wunderground v.1.15,2013-02-10 19:00:00,
2013-02-10 13:10:00,61.7,43.9,29.56,ENE,73,9.0,9.0,52,0.00,,,0.19,Wunderground v.1.15,2013-02-10 19:10:00,
2013-02-10 13:19:00,61.7,41.3,29.56,East,90,8.0,14.0,47,0.00,,,0.19,Wunderground v.1.15,2013-02-10 19:19:00,
2013-02-10 13:30:00,62.2,39.4,29.56,SE,134,7.0,7.0,43,0.00,,,0.19,Wunderground v.1.15,2013-02-10 19:30:00,
2013-02-10 13:40:00,62.5,37.8,29.56,SE,136,6.0,14.0,40,0.00,,,0.19,Wunderground v.1.15,2013-02-10 19:40:00,
2013-02-10 13:50:00,61.6,35.1,29.55,SE,136,10.0,10.0,37,0.00,,,0.19,Wunderground v.1.15,2013-02-10 19:50:00,
2013-02-10 13:59:00,61.7,35.1,29.55,SE,125,9.0,14.0,37,0.00,,,0.19,Wunderground v.1.15,2013-02-10 19:59:00,
2013-02-10 14:10:00,61.8,33.8,29.56,East,91,8.0,14.0,35,0.00,,,0.19,Wunderground v.1.15,2013-02-10 20:10:00,
2013-02-10 14:20:00,61.6,33.7,29.56,ESE,109,9.0,9.0,35,0.00,,,0.19,Wunderground v.1.15,2013-02-10 20:20:00,
2013-02-10 14:30:00,61.4,31.3,29.56,SW,215,9.0,9.0,32,0.00,,,0.19,Wunderground v.1.15,2013-02-10 20:30:00,
2013-02-10 14:39:00,61.7,30.7,29.57,SE,136,8.0,8.0,31,0.00,,,0.19,Wunderground v.1.15,2013-02-10 20:39:00,
2013-02-10 14:45:00,61.3,29.6,29.57,ESE,120,9.0,11.0,30,0.00,,,0.19,Wunderground v.1.15,2013-02-10 20:45:00,
2013-02-10 14:55:00,61.0,29.3,29.57,ESE,108,9.0,14.0,30,0.00,,,0.19,Wunderground v.1.15,2013-02-10 20:55:00,
2013-02-10 15:05:00,60.6,29.0,29.58,ENE,74,7.0,14.0,30,0.00,,,0.19,Wunderground v.1.15,2013-02-10 21:05:00,
2013-02-10 15:14:00,60.9,30.0,29.58,East,85,7.0,14.0,31,0.00,,,0.19,Wunderground v.1.15,2013-02-10 21:14:00,
2013-02-10 15:25:00,60.2,30.2,29.58,East,101,9.0,14.0,32,0.00,,,0.19,Wunderground v.1.15,2013-02-10 21:25:00,
2013-02-10 15:35:00,59.9,28.4,29.59,ESE,110,10.0,14.0,30,0.00,,,0.19,Wunderground v.1.15,2013-02-10 21:35:00,
2013-02-10 15:45:00,60.2,29.4,29.58,ESE,115,8.0,14.0,31,0.00,,,0.19,Wunderground v.1.15,2013-02-10 21:45:00,
2013-02-10 15:54:00,60.5,29.7,29.58,SE,142,6.0,9.0,31,0.00,,,0.19,Wunderground v.1.15,2013-02-10 21:54:00,
2013-02-10 16:04:00,59.9,29.2,29.59,ESE,121,8.0,10.0,31,0.00,,,0.19,Wunderground v.1.15,2013-02-10 22:04:00,
2013-02-10 16:10:00,59.6,28.1,29.59,SSE,150,9.0,9.0,30,0.00,,,0.19,Wunderground v.1.15,2013-02-10 22:10:00,
2013-02-10 16:20:00,59.2,27.7,29.60,SE,129,8.0,8.0,30,0.00,,,0.19,Wunderground v.1.15,2013-02-10 22:20:00,
2013-02-10 16:30:00,58.7,28.9,29.61,SE,133,10.0,18.0,32,0.00,,,0.19,Wunderground v.1.15,2013-02-10 22:30:00,
2013-02-10 16:40:00,58.2,29.2,29.61,ESE,118,6.0,14.0,33,0.00,,,0.19,Wunderground v.1.15,2013-02-10 22:40:00,
2013-02-10 16:49:00,57.8,29.6,29.62,South,184,7.0,7.0,34,0.00,,,0.19,Wunderground v.1.15,2013-02-10 22:49:00,
2013-02-10 17:00:00,57.2,29.8,29.63,South,169,7.0,7.0,35,0.00,,,0.19,Wunderground v.1.15,2013-02-10 23:00:00,
2013-02-10 17:05:00,56.8,30.1,29.64,SE,139,7.0,14.0,36,0.00,,,0.19,Wunderground v.1.15,2013-02-10 23:05:00,
2013-02-10 17:15:00,56.1,30.8,29.64,SE,138,5.0,14.0,38,0.00,,,0.19,Wunderground v.1.15,2013-02-10 23:15:00,
2013-02-10 17:25:00,55.8,30.5,29.65,East,99,5.0,7.0,38,0.00,,,0.19,Wunderground v.1.15,2013-02-10 23:25:00,
2013-02-10 17:34:00,55.8,29.9,29.65,SSE,167,8.0,14.0,37,0.00,,,0.19,Wunderground v.1.15,2013-02-10 23:34:00,
2013-02-10 17:45:00,55.1,30.6,29.66,ESE,107,4.0,12.0,39,0.00,,,0.19,Wunderground v.1.15,2013-02-10 23:45:00,
2013-02-10 17:55:00,54.7,30.8,29.66,East,100,7.0,14.0,40,0.00,,,0.19,Wunderground v.1.15,2013-02-10 23:55:00,
2013-02-10 18:05:00,54.6,30.7,29.68,ESE,107,7.0,14.0,40,0.00,,,0.19,Wunderground v.1.15,2013-02-11 00:05:00,
2013-02-10 18:14:00,54.3,30.5,29.68,SSE,152,8.0,8.0,40,0.00,,,0.19,Wunderground v.1.15,2013-02-11 00:14:00,
2013-02-10 18:20:00,54.1,30.3,29.68,ESE,102,7.0,14.0,40,0.00,,,0.19,Wunderground v.1.15,2013-02-11 00:20:00,
2013-02-10 18:30:00,53.5,31.0,29.69,SE,130,5.0,5.0,42,0.00,,,0.19,Wunderground v.1.15,2013-02-11 00:30:00,
2013-02-10 18:40:00,53.2,30.7,29.70,SE,127,5.0,14.0,42,0.00,,,0.19,Wunderground v.1.15,2013-02-11 00:40:00,
2013-02-10 18:49:00,52.4,31.1,29.72,SW,231,3.0,14.0,44,0.00,,,0.19,Wunderground v.1.15,2013-02-11 00:49:00,
2013-02-10 19:00:00,52.1,30.8,29.72,East,91,4.0,4.0,44,0.00,,,0.19,Wunderground v.1.15,2013-02-11 01:00:00,
2013-02-10 19:10:00,51.6,31.5,29.72,ESE,113,4.0,14.0,46,0.00,,,0.19,Wunderground v.1.15,2013-02-11 01:10:00,
2013-02-10 19:20:00,51.2,31.1,29.72,SE,133,4.0,4.0,46,0.00,,,0.19,Wunderground v.1.15,2013-02-11 01:20:00,
2013-02-10 19:29:00,50.6,31.6,29.72,SSW,211,2.0,14.0,48,0.00,,,0.19,Wunderground v.1.15,2013-02-11 01:29:00,
2013-02-10 19:40:00,50.4,30.9,29.73,East,97,3.0,3.0,47,0.00,,,0.19,Wunderground v.1.15,2013-02-11 01:40:00,
2013-02-10 19:50:00,50.4,30.9,29.74,SE,131,4.0,4.0,47,0.00,,,0.19,Wunderground v.1.15,2013-02-11 01:50:00,
2013-02-10 20:00:00,50.4,31.4,29.74,SW,219,5.0,5.0,48,0.00,,,0.19,Wunderground v.1.15,2013-02-11 02:00:00,
2013-02-10 20:09:00,50.1,31.2,29.75,SSE,161,5.0,5.0,48,0.00,,,0.19,Wunderground v.1.15,2013-02-11 02:09:00,
2013-02-10 20:20:00,49.9,31.5,29.75,East,79,5.0,14.0,49,0.00,,,0.19,Wunderground v.1.15,2013-02-11 02:20:00,
2013-02-10 20:30:00,49.3,31.9,29.77,WSW,250,5.0,14.0,51,0.00,,,0.19,Wunderground v.1.15,2013-02-11 02:30:00,
2013-02-10 20:40:00,48.3,31.5,29.77,SE,132,4.0,4.0,52,0.00,,,0.19,Wunderground v.1.15,2013-02-11 02:40:00,
2013-02-10 20:49:00,47.4,31.6,29.78,SSW,201,5.0,5.0,54,0.00,,,0.19,Wunderground v.1.15,2013-02-11 02:49:00,
2013-02-10 20:55:00,47.1,31.3,29.79,SSE,147,5.0,14.0,54,0.00,,,0.19,Wunderground v.1.15,2013-02-11 02:55:00,
2013-02-10 21:05:00,46.2,30.9,29.80,ENE,77,4.0,9.0,55,0.00,,,0.19,Wunderground v.1.15,2013-02-11 03:05:00,
2013-02-10 21:15:00,45.1,30.3,29.82,South,172,5.0,14.0,56,0.00,,,0.19,Wunderground v.1.15,2013-02-11 03:15:00,
2013-02-10 21:24:00,44.3,30.0,29.82,SSE,150,5.0,14.0,57,0.00,,,0.19,Wunderground v.1.15,2013-02-11 03:24:00,
2013-02-10 21:30:00,43.8,29.5,29.82,SE,143,4.0,14.0,57,0.00,,,0.19,Wunderground v.1.15,2013-02-11 03:30:00,
2013-02-10 21:40:00,43.2,29.0,29.83,ESE,108,5.0,14.0,57,0.00,,,0.19,Wunderground v.1.15,2013-02-11 03:40:00,
2013-02-10 21:50:00,42.7,28.9,29.84,WSW,243,5.0,14.0,58,0.00,,,0.19,Wunderground v.1.15,2013-02-11 03:50:00,
2013-02-10 21:59:00,42.5,28.8,29.84,SE,145,5.0,5.0,58,0.00,,,0.19,Wunderground v.1.15,2013-02-11 03:59:00,
2013-02-10 22:10:00,42.2,28.9,29.85,SE,143,5.0,5.0,59,0.00,,,0.19,Wunderground v.1.15,2013-02-11 04:10:00,
2013-02-10 22:20:00,42.0,28.7,29.85,SSE,148,5.0,14.0,59,0.00,,,0.19,Wunderground v.1.15,2013-02-11 04:20:00,
2013-02-10 22:30:00,41.7,28.8,29.86,ESE,110,5.0,14.0,60,0.00,,,0.19,Wunderground v.1.15,2013-02-11 04:30:00,
2013-02-10 22:39:00,41.6,28.7,29.86,ESE,110,5.0,5.0,60,0.00,,,0.19,Wunderground v.1.15,2013-02-11 04:39:00,
2013-02-10 22:50:00,41.3,28.4,29.88,ESE,120,4.0,14.0,60,0.00,,,0.19,Wunderground v.1.15,2013-02-11 04:50:00,
2013-02-10 23:00:00,41.3,28.4,29.88,SE,132,5.0,5.0,60,0.00,,,0.19,Wunderground v.1.15,2013-02-11 05:00:00,
2013-02-10 23:10:00,41.0,28.6,29.89,ESE,104,5.0,5.0,61,0.00,,,0.19,Wunderground v.1.15,2013-02-11 05:10:00,
2013-02-10 23:15:00,40.8,28.4,29.89,SW,231,4.0,14.0,61,0.00,,,0.19,Wunderground v.1.15,2013-02-11 05:15:00,
2013-02-10 23:24:00,40.6,28.6,29.90,SE,132,4.0,14.0,62,0.00,,,0.19,Wunderground v.1.15,2013-02-11 05:24:00,
2013-02-10 23:35:00,40.2,27.8,29.91,ENE,63,4.0,14.0,61,0.00,,,0.19,Wunderground v.1.15,2013-02-11 05:35:00,
2013-02-10 23:45:00,39.9,26.7,29.92,SSW,193,4.0,6.0,59,0.00,,,0.19,Wunderground v.1.15,2013-02-11 05:45:00,
2013-02-10 23:55:00,39.5,26.3,29.93,SSW,193,4.0,14.0,59,0.00,,,0.19,Wunderground v.1.15,2013-02-11 05:55:00,